GW1240 Weather Reports


time (UTC)temp
C
wind
direction
speed
KPH
gust
KPH
rain 1hr
cm
rain 24hr
cm
rain mn
cm
humidity
%
barometer
mb
20260507224138 16 278 8.0 11.3 0.00 0.03 0.03 32 1003.1
20260507223634 16 231 3.2 4.8 0.00 0.03 0.03 33 1003.0
20260507223131 16 309 4.8 9.7 0.00 0.03 0.03 33 1002.7
20260507222628 16 229 0.0 0.0 0.00 0.03 0.03 33 1002.8
20260507222124 16 299 1.6 3.2 0.00 0.03 0.03 33 1002.6
20260507221621 16 311 14.5 17.7 0.00 0.03 0.03 32 1002.6
20260507221117 16 205 6.4 6.4 0.00 0.03 0.03 33 1002.6
20260507220615 16 303 8.0 12.9 0.00 0.03 0.03 32 1002.5
20260507220112 16 241 4.8 9.7 0.00 0.03 0.03 32 1002.4
20260507215608 17 315 9.7 12.9 0.00 0.03 0.03 32 1002.7
20260507215106 16 303 3.2 4.8 0.00 0.03 0.03 32 1002.5
20260507214603 16 235 1.6 1.6 0.00 0.03 0.03 33 1002.2
20260507214059 16 241 4.8 6.4 0.00 0.03 0.03 33 1002.4
20260507213555 17 353 6.4 14.5 0.00 0.03 0.03 33 1002.6
20260507213053 17 294 8.0 12.9 0.00 0.03 0.03 33 1002.4
20260507212548 17 262 4.8 9.7 0.00 0.03 0.03 32 1002.4
20260507212046 17 258 4.8 6.4 0.00 0.03 0.03 31 1002.1
20260507211542 16 242 1.6 3.2 0.00 0.03 0.03 32 1002.3
20260507211038 16 326 17.7 27.4 0.00 0.03 0.03 31 1002.6
20260507210536 17 327 6.4 9.7 0.00 0.03 0.03 31 1002.4
20260507210032 17 248 6.4 6.4 0.00 0.03 0.03 31 1002.4
20260507205529 17 205 1.6 3.2 0.00 0.03 0.03 31 1002.2
20260507205025 17 247 8.0 11.3 0.00 0.03 0.03 31 1002.4
20260507204522 17 335 6.4 11.3 0.00 0.03 0.03 31 1002.5
20260507204020 17 234 0.0 1.6 0.00 0.03 0.03 31 1002.4
20260507203517 17 237 0.0 1.6 0.00 0.03 0.03 31 1002.8
20260507203015 17 223 6.4 9.7 0.00 0.03 0.03 31 1002.4
20260507202510 17 299 4.8 6.4 0.00 0.03 0.03 32 1002.3
20260507202006 17 209 11.3 22.5 0.00 0.03 0.03 31 1002.4
20260507201502 17 290 6.4 9.7 0.00 0.03 0.03 32 1002.3
20260507200958 16 245 3.2 3.2 0.00 0.03 0.03 32 1002.2
20260507200454 16 242 3.2 6.4 0.00 0.03 0.03 33 1002.6
20260507195949 16 329 4.8 11.3 0.00 0.03 0.03 33 1002.6
20260507195448 17 267 12.9 17.7 0.00 0.03 0.03 33 1002.5
20260507194945 16 293 4.8 6.4 0.00 0.03 0.03 34 1002.4
20260507194441 17 234 6.4 6.4 0.00 0.03 0.03 33 1002.4
20260507193937 17 221 4.8 6.4 0.00 0.03 0.03 33 1002.4
20260507193435 17 278 6.4 6.4 0.00 0.03 0.03 33 1002.4
20260507192931 17 230 4.8 4.8 0.00 0.03 0.03 34 1002.4
20260507192427 16 314 4.8 4.8 0.00 0.03 0.03 35 1002.9
20260507191925 16 245 3.2 4.8 0.00 0.03 0.03 35 1002.7
20260507191420 16 299 4.8 6.4 0.00 0.03 0.03 35 1002.7
20260507190917 17 326 9.7 14.5 0.00 0.03 0.03 34 1002.7
20260507190415 16 293 3.2 6.4 0.00 0.03 0.03 35 1003.0
20260507185914 16 5 14.5 16.1 0.00 0.03 0.03 34 1002.8
20260507185411 16 279 9.7 14.5 0.00 0.03 0.03 34 1002.9
20260507184907 16 329 14.5 17.7 0.00 0.03 0.03 34 1002.7
20260507184405 17 340 9.7 12.9 0.00 0.03 0.03 35 1003.0
20260507183902 17 326 4.8 6.4 0.00 0.03 0.03 35 1003.1
20260507183359 17 277 11.3 14.5 0.00 0.03 0.03 35 1003.1
20260507182857 17 242 8.0 12.9 0.00 0.03 0.03 33 1003.2
20260507182352 17 240 3.2 4.8 0.00 0.03 0.03 34 1002.9
20260507181849 17 290 6.4 9.7 0.00 0.03 0.03 34 1002.8
20260507181344 17 238 4.8 6.4 0.00 0.03 0.03 35 1002.8
20260507180842 17 239 3.2 4.8 0.00 0.03 0.03 34 1003.2
20260507180338 16 252 3.2 4.8 0.00 0.03 0.03 35 1003.4
20260507175834 17 247 6.4 9.7 0.00 0.03 0.03 35 1003.1
20260507175331 16 243 8.0 12.9 0.00 0.03 0.03 35 1003.0
20260507174829 17 247 6.4 9.7 0.00 0.03 0.03 34 1003.1
20260507174326 16 180 8.0 11.3 0.00 0.03 0.03 36 1003.1
20260507173823 17 228 3.2 3.2 0.00 0.03 0.03 37 1003.1
20260507173320 16 235 3.2 4.8 0.00 0.03 0.03 37 1003.1
20260507172817 16 239 3.2 4.8 0.00 0.03 0.03 37 1003.2
20260507172314 16 232 3.2 4.8 0.00 0.03 0.03 38 1003.1
20260507171809 16 274 11.3 16.1 0.00 0.03 0.03 39 1003.1
20260507171307 17 229 6.4 9.7 0.00 0.03 0.03 40 1003.2
20260507170803 16 271 6.4 6.4 0.00 0.03 0.03 42 1003.5
20260507170300 16 230 6.4 9.7 0.00 0.03 0.03 45 1003.5
20260507165756 16 245 4.8 6.4 0.00 0.03 0.03 47 1003.5
20260507165252 15 337 4.8 6.4 0.00 0.03 0.03 50 1003.6
20260507164748 16 210 4.8 6.4 0.00 0.03 0.03 50 1003.5
20260507164245 16 238 0.0 1.6 0.00 0.03 0.03 50 1003.5
20260507163742 16 226 4.8 4.8 0.00 0.03 0.03 51 1003.8
20260507163240 15 329 3.2 6.4 0.00 0.03 0.03 53 1003.9
20260507162736 16 242 3.2 6.4 0.00 0.03 0.03 53 1003.8
20260507162232 16 259 1.6 1.6 0.00 0.03 0.03 52 1003.7
20260507161729 16 221 1.6 1.6 0.00 0.03 0.03 51 1004.0
20260507161225 15 244 6.4 6.4 0.00 0.03 0.03 51 1004.1
20260507160721 15 226 6.4 9.7 0.00 0.03 0.03 52 1004.1
20260507160218 16 233 6.4 6.4 0.00 0.03 0.03 51 1004.2
20260507155714 15 349 8.0 11.3 0.00 0.03 0.03 50 1004.2
20260507155210 15 322 6.4 9.7 0.00 0.03 0.03 51 1004.1
20260507154707 15 338 8.0 12.9 0.00 0.03 0.03 50 1004.0
20260507154205 16 262 6.4 6.4 0.00 0.03 0.03 49 1004.1
20260507153701 16 222 11.3 11.3 0.00 0.03 0.03 47 1004.3
20260507153157 15 305 3.2 6.4 0.00 0.03 0.03 48 1004.1
20260507152654 16 237 3.2 4.8 0.00 0.03 0.03 46 1004.3
20260507152150 16 204 4.8 9.7 0.00 0.03 0.03 48 1004.1
20260507151646 15 264 1.6 1.6 0.00 0.03 0.03 49 1004.3
20260507151143 16 213 3.2 3.2 0.00 0.03 0.03 47 1004.5
20260507150640 15 206 3.2 3.2 0.00 0.03 0.03 49 1004.8
20260507150137 16 280 8.0 12.9 0.00 0.03 0.03 49 1004.6
20260507145632 15 239 3.2 4.8 0.00 0.03 0.03 49 1004.7
20260507145130 15 243 3.2 3.2 0.00 0.03 0.03 51 1004.6
20260507144626 15 241 3.2 3.2 0.00 0.03 0.03 51 1004.8
20260507144124 15 278 3.2 4.8 0.00 0.03 0.03 52 1004.5
20260507143620 15 316 4.8 6.4 0.00 0.03 0.03 50 1004.7
20260507143118 15 353 6.4 9.7 0.00 0.03 0.03 52 1004.4
20260507142613 15 242 3.2 4.8 0.00 0.03 0.03 53 1004.6
20260507142111 15 226 1.6 1.6 0.00 0.03 0.03 54 1004.6
20260507141607 15 232 3.2 4.8 0.00 0.03 0.03 53 1004.6
20260507141103 15 269 3.2 4.8 0.00 0.03 0.03 54 1004.5
20260507140600 14 231 1.6 3.2 0.00 0.03 0.03 58 1004.4
20260507140057 14 358 1.6 4.8 0.00 0.03 0.03 58 1004.6
20260507135553 14 228 4.8 9.7 0.00 0.03 0.03 57 1004.4
20260507135046 13 314 6.4 6.4 0.00 0.03 0.03 59 1004.8
20260507134542 13 268 3.2 4.8 0.00 0.03 0.03 61 1004.9
20260507134038 13 223 1.6 1.6 0.00 0.03 0.03 62 1004.6
20260507133534 13 290 3.2 4.8 0.00 0.03 0.03 61 1004.9
20260507133032 13 346 6.4 9.7 0.00 0.03 0.03 61 1005.2
20260507132529 13 333 9.7 12.9 0.00 0.03 0.03 61 1005.0
20260507132025 13 321 4.8 4.8 0.00 0.03 0.03 62 1005.2
20260507131522 12 307 6.4 9.7 0.00 0.03 0.03 62 1005.3
20260507131019 13 348 4.8 4.8 0.00 0.03 0.03 62 1005.2
20260507130516 12 6 6.4 6.4 0.00 0.03 0.03 63 1005.2
20260507130015 12 300 6.4 6.4 0.00 0.03 0.03 63 1005.3
20260507125512 12 6 11.3 12.9 0.00 0.03 0.03 64 1005.2
20260507125011 12 235 0.0 1.6 0.00 0.03 0.03 66 1005.2
20260507124506 12 315 8.0 11.3 0.00 0.03 0.03 66 1005.6
20260507124004 12 207 1.6 1.6 0.00 0.03 0.03 68 1005.2
20260507123501 11 242 1.6 1.6 0.00 0.03 0.03 70 1005.2
20260507122957 11 248 9.7 12.9 0.00 0.03 0.03 70 1005.2
20260507122453 11 302 3.2 4.8 0.00 0.03 0.03 70 1005.3
20260507121949 11 224 1.6 1.6 0.00 0.03 0.03 71 1005.4
20260507121444 11 293 1.6 3.2 0.00 0.03 0.03 73 1005.3
20260507120941 10 238 3.2 3.2 0.00 0.03 0.03 73 1005.4
20260507120437 10 330 8.0 9.7 0.00 0.03 0.03 74 1005.4
20260507115934 10 260 4.8 6.4 0.00 0.03 0.03 75 1005.4
20260507115430 10 333 4.8 6.4 0.00 0.03 0.03 76 1005.1
20260507114926 10 318 3.2 4.8 0.00 0.03 0.03 76 1005.6
20260507114422 10 308 6.4 12.9 0.00 0.03 0.03 77 1005.4
20260507113920 10 277 3.2 3.2 0.00 0.03 0.03 78 1005.1
20260507113417 10 253 3.2 4.8 0.00 0.03 0.03 79 1005.2
20260507112914 9 268 6.4 6.4 0.00 0.03 0.03 80 1004.8
20260507112411 9 257 1.6 1.6 0.00 0.03 0.03 80 1005.0
20260507111909 9 337 4.8 4.8 0.00 0.03 0.03 80 1004.8
20260507111405 9 252 6.4 11.3 0.00 0.03 0.03 81 1005.2
20260507110902 9 266 1.6 1.6 0.00 0.03 0.03 81 1005.1
20260507110358 9 252 0.0 1.6 0.00 0.03 0.03 82 1005.3
20260507105855 9 328 1.6 4.8 0.00 0.03 0.03 82 1005.0
20260507105351 9 276 4.8 4.8 0.00 0.03 0.03 82 1004.9
20260507104848 9 274 3.2 3.2 0.00 0.03 0.03 83 1004.7
20260507104345 9 330 6.4 9.7 0.00 0.03 0.03 83 1004.8
20260507103841 9 255 1.6 1.6 0.00 0.03 0.03 84 1004.6
20260507103337 9 332 4.8 11.3 0.00 0.03 0.03 84 1004.6
20260507102834 9 314 6.4 6.4 0.00 0.03 0.03 83 1004.4
20260507102330 9 338 9.7 11.3 0.00 0.03 0.03 84 1004.8
20260507101827 9 319 9.7 14.5 0.00 0.03 0.03 84 1004.9
20260507101322 9 319 4.8 4.8 0.00 0.03 0.03 84 1004.8
20260507100819 9 274 6.4 6.4 0.00 0.03 0.03 83 1004.2
20260507100318 9 254 6.4 9.7 0.00 0.03 0.03 84 1004.5
20260507095816 9 274 4.8 6.4 0.00 0.03 0.03 84 1005.1
20260507095311 9 243 1.6 1.6 0.00 0.03 0.03 84 1004.7
20260507094809 9 237 1.6 1.6 0.00 0.03 0.03 84 1004.4
20260507094305 9 333 4.8 11.3 0.00 0.03 0.03 84 1004.5
20260507093802 9 315 3.2 4.8 0.00 0.03 0.03 84 1004.7
20260507093301 9 292 1.6 3.2 0.00 0.03 0.03 84 1004.3
20260507092758 9 275 3.2 4.8 0.00 0.03 0.03 84 1004.7
20260507092254 9 292 9.7 14.5 0.00 0.03 0.03 83 1004.8
20260507091750 9 268 0.0 1.6 0.00 0.03 0.03 84 1004.9
20260507091247 10 277 3.2 4.8 0.00 0.03 0.03 84 1004.7
20260507090742 10 239 3.2 4.8 0.00 0.03 0.03 83 1004.5
20260507090239 10 239 0.0 1.6 0.00 0.03 0.03 83 1004.6
20260507085736 10 248 3.2 3.2 0.00 0.03 0.03 84 1004.3
20260507085233 10 207 3.2 3.2 0.00 0.03 0.03 83 1004.1
20260507084730 10 306 9.7 14.5 0.00 0.03 0.03 84 1004.2
20260507084226 10 249 1.6 3.2 0.00 0.03 0.03 84 1004.2
20260507083724 10 256 8.0 11.3 0.13 0.03 0.03 84 1004.1
20260507083220 10 250 1.6 1.6 0.13 0.03 0.03 85 1004.0
20260507082716 10 234 3.2 3.2 0.00 0.00 0.00 85 1004.2
20260507082212 10 212 3.2 6.4 0.00 0.00 0.00 85 1004.0
20260507081709 10 231 1.6 3.2 0.00 0.00 0.00 86 1004.0
20260507081205 10 235 3.2 4.8 0.00 0.00 0.00 85 1004.4
20260507080702 10 233 3.2 4.8 0.00 0.00 0.00 85 1004.5
20260507080153 10 263 4.8 6.4 0.00 0.00 0.00 83 1004.1
20260507075653 10 295 14.5 16.1 0.00 0.00 0.00 82 1003.9
20260507075150 10 222 6.4 11.3 0.00 0.00 0.00 82 1004.2
20260507074647 10 240 3.2 3.2 0.00 0.00 0.00 82 1004.5
20260507074145 10 241 4.8 9.7 0.00 0.00 0.00 82 1004.1
20260507073641 10 247 4.8 6.4 0.00 0.00 0.00 83 1004.1
20260507073137 10 240 1.6 1.6 0.00 0.00 0.00 83 1004.0
20260507072636 10 282 4.8 9.7 0.00 0.00 0.00 83 1003.9
20260507072127 11 244 3.2 4.8 0.00 0.00 0.00 84 1003.7
20260507071625 11 252 1.6 3.2 0.00 0.00 0.00 85 1004.0
20260507071121 11 297 8.0 12.9 0.00 0.00 0.00 86 1003.8
20260507070618 11 283 6.4 6.4 0.00 0.00 0.00 87 1003.6
20260507070115 11 249 1.6 1.6 0.00 0.00 0.00 89 1003.5
20260507065611 11 245 1.6 1.6 0.00 0.00 0.00 89 1003.6
20260507065108 11 270 3.2 4.8 0.00 0.00 0.00 89 1003.6
20260507064606 11 240 3.2 4.8 0.00 0.00 0.00 88 1003.7
20260507064105 11 237 3.2 4.8 0.00 0.00 0.00 88 1003.5
20260507063602 11 236 0.0 1.6 0.00 0.00 0.00 88 1003.2
20260507063059 11 237 1.6 1.6 0.00 0.00 0.00 88 1003.3
20260507062555 11 256 6.4 12.9 0.00 0.00 0.00 87 1003.4
20260507062053 11 244 1.6 3.2 0.00 0.00 0.00 87 1003.5
20260507061550 11 246 1.6 1.6 0.00 0.00 0.00 87 1003.6
20260507061048 11 299 1.6 3.2 0.00 0.00 0.00 87 1003.6
20260507060546 11 238 1.6 1.6 0.00 0.00 0.00 88 1003.5
20260507060042 11 270 1.6 1.6 0.00 0.00 0.00 88 1003.7
20260507055542 11 339 4.8 9.7 0.00 0.00 0.00 88 1003.8
20260507055039 11 248 3.2 3.2 0.00 0.00 0.00 89 1003.8
20260507054535 11 244 1.6 3.2 0.00 0.00 0.00 89 1003.7
20260507054032 11 298 3.2 4.8 0.00 0.00 0.00 89 1003.6
20260507053530 11 277 3.2 4.8 0.00 0.00 0.00 89 1003.4
20260507053029 12 247 4.8 4.8 0.00 0.00 0.00 88 1003.7
20260507052526 11 229 4.8 6.4 0.00 0.00 0.00 88 1003.7
20260507052022 11 226 0.0 1.6 0.00 0.00 0.00 88 1003.6
20260507051520 12 253 1.6 1.6 0.00 0.00 0.00 89 1003.7
20260507051017 12 258 1.6 1.6 0.00 0.00 0.00 89 1003.7
20260507050513 12 250 4.8 6.4 0.00 0.00 0.00 90 1004.0
20260507050010 12 301 9.7 12.9 0.00 0.00 0.00 90 1003.9
20260507045506 12 254 3.2 4.8 0.00 0.00 0.00 90 1003.6
20260507045004 12 246 4.8 6.4 0.00 0.00 0.00 90 1003.4
20260507044500 12 234 3.2 3.2 0.00 0.00 0.00 90 1003.6
20260507043956 12 217 0.0 1.6 0.00 0.00 0.00 91 1003.5
20260507043453 12 271 1.6 3.2 0.00 0.00 0.00 92 1003.7
20260507042949 12 276 6.4 6.4 0.00 0.00 0.00 93 1003.5
20260507042446 13 326 6.4 11.3 0.00 0.00 0.00 94 1003.8
20260507041942 13 302 6.4 9.7 0.00 0.00 0.00 94 1003.8
20260507041439 13 216 4.8 6.4 0.00 0.00 0.00 95 1003.6
20260507040936 13 250 4.8 9.7 0.00 0.00 0.00 96 1003.7
20260507040432 15 254 1.6 1.6 0.00 0.00 0.00 96 1003.2
20260507035928 15 239 3.2 3.2 0.00 0.53 0.53 97 1003.2
20260507035425 15 237 3.2 4.8 0.00 0.53 0.53 97 1003.3
20260507034922 15 238 3.2 3.2 0.00 0.53 0.53 97 1003.0
20260507034419 15 236 3.2 6.4 0.00 0.53 0.53 97 1003.1
20260507033917 15 223 1.6 1.6 0.00 0.53 0.53 97 1003.1
20260507033414 15 214 6.4 9.7 0.00 0.53 0.53 97 1002.8
20260507032911 15 231 1.6 1.6 0.00 0.53 0.53 97 1002.7
20260507032408 15 228 1.6 3.2 0.00 0.53 0.53 97 1002.7
20260507031904 15 212 4.8 4.8 0.00 0.53 0.53 97 1002.6
20260507031401 15 238 4.8 4.8 0.00 0.53 0.53 97 1002.5
20260507030857 15 220 1.6 3.2 0.00 0.53 0.53 97 1002.4
20260507030355 15 237 1.6 3.2 0.00 0.53 0.53 97 1002.4
20260507025851 15 228 4.8 4.8 0.00 0.53 0.53 97 1002.5
20260507025349 15 217 1.6 3.2 0.00 0.53 0.53 97 1002.5
20260507024846 15 236 3.2 4.8 0.00 0.53 0.53 97 1002.8
20260507024344 15 219 1.6 3.2 0.00 0.53 0.53 97 1002.5
20260507023839 15 222 3.2 4.8 0.00 0.53 0.53 98 1002.8
20260507023336 15 231 4.8 4.8 0.00 0.53 0.53 98 1002.4
20260507022834 15 232 3.2 4.8 0.00 0.53 0.53 98 1002.4
20260507022330 15 237 4.8 4.8 0.00 0.53 0.53 98 1002.5
20260507021826 15 233 1.6 3.2 0.00 0.53 0.53 98 1002.4
20260507021321 15 203 3.2 4.8 0.00 0.53 0.53 98 1002.3
20260507020820 15 234 0.0 0.0 0.00 0.53 0.53 98 1002.5
20260507020316 15 215 6.4 9.7 0.00 0.53 0.53 98 1002.6
20260507015814 15 213 4.8 4.8 0.00 0.53 0.53 98 1002.8
20260507015311 15 183 3.2 4.8 0.00 0.53 0.53 98 1002.7
20260507014808 15 236 4.8 6.4 0.00 0.53 0.53 98 1002.7
20260507014304 15 186 4.8 9.7 0.00 0.53 0.53 98 1002.9
20260507013800 14 226 6.4 6.4 0.00 0.53 0.53 98 1002.9
20260507013258 15 200 3.2 3.2 0.00 0.53 0.53 98 1002.9
20260507012755 15 229 1.6 3.2 0.00 0.53 0.53 98 1002.8
20260507012251 15 239 6.4 9.7 0.00 0.53 0.53 98 1002.8
20260507011749 15 239 6.4 9.7 0.00 0.53 0.53 98 1002.8
20260507011245 15 229 1.6 3.2 0.00 0.53 0.53 98 1002.9
20260507010744 15 198 8.0 9.7 0.00 0.53 0.53 98 1002.9
20260507010241 15 230 3.2 4.8 0.00 0.53 0.53 98 1002.9
20260507005738 15 197 1.6 3.2 0.00 0.53 0.53 98 1002.8
20260507005234 15 233 0.0 1.6 0.00 0.53 0.53 98 1002.8
20260507004731 15 226 1.6 3.2 0.00 0.53 0.53 98 1003.0
20260507004229 15 229 3.2 3.2 0.00 0.53 0.53 98 1003.0
20260507003725 15 209 3.2 3.2 0.00 0.53 0.53 97 1002.8
20260507003220 15 204 3.2 4.8 0.18 0.53 0.53 97 1002.9
20260507002716 15 237 4.8 4.8 0.18 0.53 0.53 97 1003.1
20260507002213 15 203 3.2 4.8 0.00 0.51 0.51 97 1002.7
20260507001710 15 242 3.2 4.8 0.00 0.51 0.51 97 1002.7
20260507001207 15 230 1.6 1.6 0.00 0.51 0.51 97 1002.7
20260507000703 15 187 3.2 4.8 0.00 0.51 0.51 97 1002.8
20260507000159 15 224 0.0 0.0 0.00 0.51 0.51 97 1002.7
20260506235656 15 189 3.2 3.2 0.00 0.51 0.51 97 1002.8
20260506235151 15 222 1.6 3.2 0.13 0.51 0.51 96 1002.7
20260506234649 15 222 1.6 1.6 0.30 0.51 0.51 96 1002.6
20260506234146 15 207 1.6 1.6 0.61 0.48 0.48 96 1002.7
20260506233643 15 235 0.0 0.0 0.61 0.46 0.46 96 1002.6
20260506233140 15 182 3.2 4.8 0.36 0.38 0.38 96 1002.7
20260506232636 15 241 1.6 4.8 0.18 0.36 0.36 96 1002.5
20260506232131 15 198 4.8 9.7 0.00 0.33 0.33 96 1002.5
20260506231629 15 221 4.8 6.4 0.00 0.33 0.33 96 1002.7
20260506231127 15 228 3.2 4.8 0.00 0.33 0.33 96 1002.9
20260506230624 15 183 6.4 9.7 0.13 0.33 0.33 95 1002.9
20260506230121 15 224 0.0 1.6 0.13 0.33 0.33 95 1002.8
20260506225617 15 237 4.8 4.8 0.13 0.33 0.33 95 1003.1
20260506225114 15 207 4.8 6.4 0.18 0.30 0.30 95 1002.9
20260506224610 15 198 4.8 6.4 0.18 0.30 0.30 95 1002.7